Cosmos 1206 Rocket - Orbit

View from above orbital plane
View from above orbital plane
View from above satellite
View from above satellite

Ground track
Ground track

The orbit data is extracted from the following two-line orbital elements,

1 11933U 80069B   13140.52184403  .00026292  00000-0  39174-3 0  9736
2 11933 081.2091 115.5246 0011677 260.3230 099.6701 15.54873901801747
Epoch (UTC): 20 May 2013 12:31:27
Eccentricity: 0.0011677
inclination: 81.2091°
perigee height: 394 km
apogee height: 410 km
right ascension of ascending node: 115.5246°
argument of perigee: 260.3230°
revolutions per day: 15.54873901
mean anomaly at epoch: 99.6701°
orbit number at epoch: 80174

The dashed part of the orbit path shows where the satellite is in the earth's shadow,  

Developed and maintained by Chris Peat, Heavens-Above GmbH. Please read the updated FAQ before sending e-mail. Imprint. DLR